Tracking 19795 objects as of 20-Jul-2019
HD Live streaming from Space Station
objects crossing your sky now

NAVSTAR 61 (USA 199)

Track NAVSTAR 61 (USA 199) now!
NAVSTAR 61 (USA 199) is classified as:


NORAD ID: 32384
Int'l Code: 2007-062A
Perigee: 20,163.6 km
Apogee: 20,216.0 km
Inclination: 56.5 °
Period: 718.0 minutes
Semi major axis: 26560 km
RCS: 2 m2 (large)
Launch date: December 20, 2007
Source: United States (US)
Launch site: AIR FORCE EASTERN TEST RANGE (AFETR)
PRN: 29

The GPS 2R-18 spacecraft is the fifth in a series of eight with enhanced features designed to rejuvenate the GPS constellation
aabbcc
Your satellite tracking list
Your tracking list is empty




NASA's NSSDC Master Catalog

Two Line Element Set (TLE):
1 32384U 07062A   19200.64805346 -.00000086 +00000-0 +00000-0 0  9998
2 32384 056.4798 013.8637 0009864 109.6479 186.1560 02.00558472084914
Source of the keplerian elements: AFSPC